Location: Zapote
(9.9191°N, 84.0597°W)
Time: 20:13:33
(UTC-06:00)

ISS - Visible Passes

Search period start: 06 April 2020 00:00
Search period end: 16 April 2020 00:00
Orbit: 418 x 423 km, 51.6° (Epoch: 07 April)

Date Brightness Start Highest point End Pass type
(mag) Time Alt. Az. Time Alt. Az. Time Alt. Az.
09 Apr -1.6 19:27:59 10° NW 19:29:25 24° NW 19:29:25 24° NW visible
10 Apr -3.0 18:41:03 10° NNW 18:44:10 35° NE 18:44:56 31° E visible
11 Apr -1.1 19:31:24 10° W 19:33:34 16° SW 19:33:34 16° SW visible
12 Apr -2.3 18:43:21 10° WNW 18:46:26 35° SW 18:49:16 12° S visible
